SJX785 RCTP-RPLL

Flight info

Callsign SJX785
Flight time 1h 41m
Altitude 36000
Route TINHO1C TINHO Q11 POTIB M646 LAO B462 CAB CAB3R
Aircraft A339/H-SADE1E2E3GHIJ3J5M1P2RWXY/LB2D1

Departure

Time 2026-05-06 14:34
Airport Taiwan Taoyuan International Airport (RCTP)

Arrival

Time 2026-05-06 16:15
Airport Ninoy Aquino International Airport (RPLL)
Time Latitude Longitude Altitude Speed Heading
2026-05-06 13:31 25.07593 121.23432 104 ft 0 kts 318°
2026-05-06 14:19 25.07583 121.23442 103 ft 3 kts 318°
2026-05-06 14:20 25.07569 121.23455 102 ft 3 kts 318°
2026-05-06 14:20 25.07556 121.23468 104 ft 3 kts 318°
2026-05-06 14:20 25.07542 121.23482 104 ft 3 kts 303°
2026-05-06 14:20 25.07534 121.23501 105 ft 3 kts 288°
2026-05-06 14:21 25.07529 121.23522 105 ft 3 kts 269°
2026-05-06 14:21 25.07531 121.23544 104 ft 3 kts 247°
2026-05-06 14:21 25.07536 121.23556 105 ft 0 kts 232°
2026-05-06 14:28 25.07535 121.23554 108 ft 5 kts 232°
2026-05-06 14:28 25.07457 121.23457 108 ft 26 kts 230°
2026-05-06 14:29 25.07343 121.23307 107 ft 14 kts 230°
2026-05-06 14:29 25.07270 121.23218 106 ft 17 kts 223°
2026-05-06 14:29 25.07168 121.23223 109 ft 16 kts 147°
2026-05-06 14:29 25.07054 121.23249 110 ft 20 kts 211°
2026-05-06 14:30 25.06940 121.23121 110 ft 23 kts 228°
2026-05-06 14:30 25.06827 121.22975 112 ft 29 kts 229°
2026-05-06 14:30 25.06685 121.22794 111 ft 33 kts 229°
2026-05-06 14:30 25.06572 121.22651 114 ft 20 kts 229°
2026-05-06 14:31 25.06466 121.22518 113 ft 24 kts 229°
2026-05-06 14:31 25.06357 121.22380 115 ft 19 kts 230°
2026-05-06 14:31 25.06271 121.22344 116 ft 10 kts 163°
2026-05-06 14:31 25.06249 121.22357 114 ft 0 kts 148°
2026-05-06 14:33 25.06234 121.22368 118 ft 9 kts 144°
2026-05-06 14:33 25.06172 121.22444 119 ft 12 kts 97°
2026-05-06 14:33 25.06216 121.22517 114 ft 34 kts 51°
2026-05-06 14:34 25.06574 121.22966 111 ft 120 kts 48°
2026-05-06 14:34 25.07292 121.23863 160 ft 189 kts 48°
2026-05-06 14:34 25.08311 121.25118 278 ft 250 kts 48°
2026-05-06 14:34 25.09506 121.26575 1267 ft 260 kts 49°
2026-05-06 14:35 25.10689 121.27974 2936 ft 242 kts 47°
2026-05-06 14:35 25.11854 121.29337 4121 ft 252 kts 47°
2026-05-06 14:35 25.13110 121.30877 4529 ft 292 kts 48°
2026-05-06 14:35 25.14582 121.32713 4518 ft 346 kts 48°
2026-05-06 14:36 25.16240 121.34775 5675 ft 344 kts 48°
2026-05-06 14:36 25.17840 121.36773 6998 ft 360 kts 48°
2026-05-06 14:36 25.19409 121.38748 9120 ft 320 kts 48°
2026-05-06 14:36 25.20870 121.40603 10420 ft 324 kts 48°
2026-05-06 14:37 25.22436 121.42388 11421 ft 323 kts 41°
2026-05-06 14:37 25.23927 121.44258 12290 ft 329 kts 62°
2026-05-06 14:37 25.24472 121.46688 13293 ft 329 kts 93°
2026-05-06 14:37 25.23919 121.49104 14152 ft 333 kts 115°
2026-05-06 14:38 25.22572 121.51185 14888 ft 337 kts 140°
2026-05-06 14:38 25.20599 121.52563 15673 ft 339 kts 155°
2026-05-06 14:38 25.18449 121.53725 16437 ft 345 kts 154°
2026-05-06 14:38 25.16320 121.55002 17297 ft 350 kts 152°
2026-05-06 14:39 25.14180 121.56345 18000 ft 361 kts 153°
2026-05-06 14:39 25.11870 121.57678 18043 ft 390 kts 155°
2026-05-06 14:39 25.09437 121.59054 18029 ft 388 kts 154°
2026-05-06 14:39 25.07109 121.60483 18097 ft 380 kts 152°
2026-05-06 14:40 25.04775 121.61917 18197 ft 400 kts 153°
2026-05-06 14:40 25.02312 121.63327 19200 ft 396 kts 154°
2026-05-06 14:40 24.99863 121.64751 20059 ft 401 kts 153°
2026-05-06 14:40 24.97401 121.66255 20793 ft 408 kts 153°
2026-05-06 14:41 24.94900 121.67758 21646 ft 411 kts 154°
2026-05-06 14:41 24.92352 121.69228 22462 ft 416 kts 154°
2026-05-06 14:41 24.89781 121.70736 23240 ft 421 kts 153°
2026-05-06 14:41 24.87191 121.72301 23939 ft 426 kts 153°
2026-05-06 14:42 24.84575 121.73857 24550 ft 431 kts 154°
2026-05-06 14:42 24.81902 121.75406 25160 ft 436 kts 155°
2026-05-06 14:42 24.79206 121.76992 25752 ft 441 kts 154°
2026-05-06 14:42 24.76530 121.78600 26334 ft 447 kts 154°
2026-05-06 14:43 24.73773 121.80229 26906 ft 451 kts 155°
2026-05-06 14:43 24.70977 121.81852 27480 ft 456 kts 155°
2026-05-06 14:43 24.68158 121.83515 27996 ft 463 kts 154°
2026-05-06 14:43 24.65282 121.85229 28015 ft 474 kts 154°
2026-05-06 14:44 24.62385 121.86932 28163 ft 470 kts 155°
2026-05-06 14:44 24.59502 121.88616 28958 ft 468 kts 155°
2026-05-06 14:44 24.56612 121.90322 29535 ft 474 kts 155°
2026-05-06 14:45 24.50750 121.93767 30563 ft 484 kts 155°
2026-05-06 14:45 24.47770 121.95513 31061 ft 488 kts 155°
2026-05-06 14:45 24.44761 121.97286 31557 ft 492 kts 154°
2026-05-06 14:45 24.41738 121.99061 32042 ft 495 kts 155°
2026-05-06 14:46 24.38533 122.00429 32462 ft 492 kts 172°
2026-05-06 14:46 24.35154 122.00582 32976 ft 485 kts 192°
2026-05-06 14:46 24.31917 121.99625 33350 ft 483 kts 202°
2026-05-06 14:46 24.28726 121.98394 33692 ft 488 kts 202°
2026-05-06 14:47 24.25526 121.97308 34064 ft 495 kts 199°
2026-05-06 14:47 24.18717 121.95707 34000 ft 496 kts 196°
2026-05-06 14:48 24.12079 121.93711 34014 ft 494 kts 199°
2026-05-06 14:48 24.05400 121.92010 34011 ft 495 kts 196°
2026-05-06 14:49 23.98752 121.90080 34016 ft 494 kts 199°
2026-05-06 14:49 23.92045 121.88325 34018 ft 496 kts 196°
2026-05-06 14:50 23.85366 121.86430 34010 ft 494 kts 199°
2026-05-06 14:50 23.78789 121.84435 33999 ft 495 kts 199°
2026-05-06 14:51 23.72170 121.82342 34004 ft 494 kts 200°
2026-05-06 14:51 23.65578 121.80168 34002 ft 495 kts 199°
2026-05-06 14:52 23.58956 121.78060 34006 ft 495 kts 200°
2026-05-06 14:52 23.52398 121.75912 34015 ft 496 kts 200°
2026-05-06 14:53 23.45772 121.73793 34018 ft 496 kts 200°
2026-05-06 14:53 23.39155 121.71641 34010 ft 497 kts 199°
2026-05-06 14:54 23.32521 121.69517 34011 ft 497 kts 200°
2026-05-06 14:54 23.25875 121.67369 34021 ft 498 kts 199°
2026-05-06 14:55 23.19228 121.65238 34012 ft 498 kts 200°
2026-05-06 14:55 23.12572 121.63099 34015 ft 498 kts 199°
2026-05-06 14:56 23.05974 121.60981 34009 ft 498 kts 200°
2026-05-06 14:56 22.99321 121.58852 34006 ft 498 kts 199°
2026-05-06 14:57 22.92662 121.56714 34008 ft 497 kts 200°
2026-05-06 14:57 22.86016 121.54597 34008 ft 498 kts 199°
2026-05-06 14:58 22.79415 121.52478 34004 ft 498 kts 200°
2026-05-06 14:58 22.72760 121.50365 33999 ft 497 kts 200°
2026-05-06 14:59 22.66152 121.48148 34001 ft 494 kts 205°
2026-05-06 14:59 22.59794 121.45279 34008 ft 495 kts 206°
2026-05-06 15:00 22.53409 121.42549 34005 ft 496 kts 205°
2026-05-06 15:00 22.47038 121.39680 34005 ft 496 kts 205°
2026-05-06 15:01 22.40621 121.36924 33999 ft 496 kts 205°
2026-05-06 15:01 22.34243 121.34073 34006 ft 496 kts 205°
2026-05-06 15:02 22.27830 121.31310 33996 ft 496 kts 205°
2026-05-06 15:02 22.21447 121.28476 34001 ft 496 kts 205°
2026-05-06 15:03 22.15075 121.25725 34006 ft 495 kts 205°
2026-05-06 15:03 22.08682 121.22901 34000 ft 495 kts 205°
2026-05-06 15:04 22.02281 121.20135 33997 ft 495 kts 205°
2026-05-06 15:04 21.95899 121.17330 34000 ft 494 kts 205°
2026-05-06 15:05 21.89506 121.14562 34001 ft 494 kts 205°
2026-05-06 15:05 21.83173 121.11791 34006 ft 493 kts 205°
2026-05-06 15:06 21.76809 121.09034 33989 ft 492 kts 205°
2026-05-06 15:06 21.70446 121.06263 34001 ft 492 kts 205°
2026-05-06 15:07 21.64135 121.03527 33992 ft 492 kts 205°
2026-05-06 15:07 21.57779 121.00770 33990 ft 492 kts 205°
2026-05-06 15:08 21.51434 120.98019 33994 ft 491 kts 205°
2026-05-06 15:08 21.45080 120.95274 33991 ft 491 kts 205°
2026-05-06 15:09 21.38745 120.92528 33990 ft 490 kts 205°
2026-05-06 15:09 21.32410 120.89799 33989 ft 491 kts 205°
2026-05-06 15:10 21.26121 120.87077 33990 ft 490 kts 205°
2026-05-06 15:10 21.19786 120.84352 33982 ft 490 kts 205°
2026-05-06 15:11 21.13466 120.81624 33975 ft 489 kts 204°
2026-05-06 15:11 21.07147 120.78909 33982 ft 489 kts 204°
2026-05-06 15:12 21.01899 120.76652 33979 ft 488 kts 204°
2026-05-06 15:12 20.97507 120.75598 34006 ft 494 kts 186°
2026-05-06 15:12 20.94054 120.75382 33973 ft 496 kts 186°
2026-05-06 15:13 20.87184 120.74725 33970 ft 494 kts 187°
2026-05-06 15:13 20.81470 120.74322 33972 ft 495 kts 186°
2026-05-06 15:14 20.73488 120.73610 33967 ft 494 kts 187°
2026-05-06 15:14 20.67730 120.73182 33973 ft 495 kts 186°
2026-05-06 15:15 20.60910 120.72596 33976 ft 494 kts 187°
2026-05-06 15:15 20.54039 120.72052 33972 ft 494 kts 186°
2026-05-06 15:16 20.47195 120.71470 33972 ft 492 kts 187°
2026-05-06 15:16 20.40397 120.70930 33974 ft 493 kts 186°
2026-05-06 15:17 20.33557 120.70351 33968 ft 492 kts 187°
2026-05-06 15:17 20.26707 120.69807 33969 ft 493 kts 186°
2026-05-06 15:18 20.19846 120.69227 33965 ft 494 kts 187°
2026-05-06 15:18 20.13040 120.68689 33962 ft 493 kts 186°
2026-05-06 15:19 20.06189 120.68110 33967 ft 493 kts 187°
2026-05-06 15:19 19.99330 120.67568 33959 ft 494 kts 186°
2026-05-06 15:20 19.92481 120.66992 33958 ft 494 kts 187°
2026-05-06 15:20 19.85667 120.66453 33962 ft 494 kts 187°
2026-05-06 15:21 19.78798 120.65876 33955 ft 494 kts 187°
2026-05-06 15:21 19.71930 120.65334 33960 ft 494 kts 187°
2026-05-06 15:22 19.65107 120.64764 33947 ft 494 kts 186°
2026-05-06 15:22 19.58234 120.64218 33951 ft 495 kts 187°
2026-05-06 15:23 19.51374 120.63651 33955 ft 495 kts 186°
2026-05-06 15:23 19.44502 120.63101 33953 ft 495 kts 187°
2026-05-06 15:24 19.37621 120.62537 33950 ft 495 kts 186°
2026-05-06 15:24 19.30793 120.61988 33951 ft 495 kts 187°
2026-05-06 15:25 19.23916 120.61429 33945 ft 495 kts 186°
2026-05-06 15:25 19.17045 120.60875 33948 ft 495 kts 187°
2026-05-06 15:26 19.10165 120.60319 33943 ft 495 kts 186°
2026-05-06 15:26 19.03276 120.59760 33948 ft 496 kts 187°
2026-05-06 15:27 18.96392 120.59209 33938 ft 496 kts 186°
2026-05-06 15:27 18.89542 120.58653 33934 ft 496 kts 186°
2026-05-06 15:28 18.82655 120.58104 33932 ft 496 kts 186°
2026-05-06 15:28 18.75761 120.57543 33927 ft 496 kts 186°
2026-05-06 15:29 18.68869 120.56995 33919 ft 496 kts 186°
2026-05-06 15:29 18.61983 120.56436 33922 ft 497 kts 186°
2026-05-06 15:30 18.55128 120.55891 33918 ft 496 kts 186°
2026-05-06 15:30 18.48229 120.55333 33912 ft 497 kts 186°
2026-05-06 15:31 18.41331 120.54784 33919 ft 496 kts 186°
2026-05-06 15:31 18.34437 120.54229 33921 ft 496 kts 186°
2026-05-06 15:32 18.24149 120.53405 33922 ft 495 kts 186°
2026-05-06 15:32 18.17278 120.53028 33909 ft 496 kts 176°
2026-05-06 15:33 18.10449 120.54348 33919 ft 499 kts 171°
2026-05-06 15:33 18.03807 120.55474 33919 ft 498 kts 172°
2026-05-06 15:34 17.96996 120.56841 33923 ft 498 kts 171°
2026-05-06 15:34 17.90159 120.58013 33923 ft 497 kts 172°
2026-05-06 15:35 17.83357 120.59349 33920 ft 497 kts 171°
2026-05-06 15:35 17.76536 120.60539 33929 ft 497 kts 172°
2026-05-06 15:36 17.69765 120.61849 33927 ft 497 kts 171°
2026-05-06 15:36 17.62991 120.63048 33240 ft 489 kts 172°
2026-05-06 15:37 17.59626 120.63683 32339 ft 491 kts 171°
2026-05-06 15:37 17.56271 120.64333 31809 ft 486 kts 171°
2026-05-06 15:37 17.52998 120.64925 31244 ft 482 kts 172°
2026-05-06 15:37 17.49683 120.65508 30653 ft 480 kts 172°
2026-05-06 15:38 17.46397 120.66126 30105 ft 478 kts 171°
2026-05-06 15:38 17.43151 120.66747 29915 ft 467 kts 171°
2026-05-06 15:38 17.36783 120.67886 29957 ft 473 kts 172°
2026-05-06 15:39 17.30287 120.69113 29949 ft 477 kts 171°
2026-05-06 15:39 17.27012 120.69703 29796 ft 475 kts 172°
2026-05-06 15:39 17.23786 120.70280 29478 ft 467 kts 171°
2026-05-06 15:40 17.20565 120.70889 28673 ft 469 kts 171°
2026-05-06 15:40 17.17367 120.71496 28235 ft 462 kts 171°
2026-05-06 15:40 17.14225 120.72064 27698 ft 457 kts 172°
2026-05-06 15:40 17.11100 120.72627 27140 ft 454 kts 171°
2026-05-06 15:41 17.08005 120.73210 26653 ft 449 kts 171°
2026-05-06 15:41 17.04982 120.73779 26151 ft 446 kts 171°
2026-05-06 15:41 17.01932 120.74328 25652 ft 442 kts 171°
2026-05-06 15:41 16.98909 120.74877 25173 ft 438 kts 171°
2026-05-06 15:42 16.95914 120.75442 24705 ft 435 kts 171°
2026-05-06 15:42 16.92944 120.75992 24250 ft 431 kts 171°
2026-05-06 15:42 16.89997 120.76523 23999 ft 423 kts 171°
2026-05-06 15:42 16.87126 120.77053 24009 ft 418 kts 171°
2026-05-06 15:43 16.84237 120.77593 24015 ft 425 kts 171°
2026-05-06 15:43 16.81349 120.78119 24021 ft 426 kts 171°
2026-05-06 15:43 16.78420 120.78653 24027 ft 428 kts 171°
2026-05-06 15:43 16.75483 120.79196 24032 ft 429 kts 171°
2026-05-06 15:44 16.72542 120.79741 24025 ft 429 kts 171°
2026-05-06 15:44 16.69591 120.80280 24030 ft 428 kts 171°
2026-05-06 15:44 16.66656 120.80815 24035 ft 429 kts 171°
2026-05-06 15:44 16.63713 120.81359 24035 ft 429 kts 171°
2026-05-06 15:45 16.60772 120.81902 24034 ft 429 kts 171°
2026-05-06 15:45 16.57824 120.82440 24027 ft 429 kts 171°
2026-05-06 15:45 16.54931 120.82966 24024 ft 429 kts 171°
2026-05-06 15:45 16.51985 120.83509 24022 ft 429 kts 171°
2026-05-06 15:46 16.49040 120.84053 24021 ft 429 kts 171°
2026-05-06 15:46 16.46102 120.84589 24013 ft 424 kts 171°
2026-05-06 15:46 16.43217 120.85116 23445 ft 424 kts 171°
2026-05-06 15:46 16.40301 120.85650 22840 ft 424 kts 171°
2026-05-06 15:47 16.37412 120.86180 22438 ft 419 kts 171°
2026-05-06 15:47 16.34550 120.86704 21941 ft 416 kts 171°
2026-05-06 15:47 16.31706 120.87224 21484 ft 414 kts 171°
2026-05-06 15:47 16.28886 120.87738 21062 ft 411 kts 171°
2026-05-06 15:48 16.26084 120.88252 20647 ft 408 kts 170°
2026-05-06 15:48 16.23295 120.88763 20213 ft 405 kts 170°
2026-05-06 15:48 16.20530 120.89267 19975 ft 398 kts 170°
2026-05-06 15:48 16.17836 120.89759 19546 ft 394 kts 170°
2026-05-06 15:49 16.15137 120.90252 18931 ft 401 kts 170°
2026-05-06 15:49 16.12406 120.90752 18654 ft 394 kts 170°
2026-05-06 15:49 16.09712 120.91242 18242 ft 393 kts 170°
2026-05-06 15:49 16.07022 120.91732 17791 ft 391 kts 169°
2026-05-06 15:50 16.04356 120.92221 17390 ft 388 kts 169°
2026-05-06 15:50 16.01706 120.92705 16961 ft 386 kts 169°
2026-05-06 15:50 15.99068 120.93184 16548 ft 384 kts 169°
2026-05-06 15:50 15.96449 120.93660 16141 ft 381 kts 169°
2026-05-06 15:51 15.93850 120.94137 15930 ft 373 kts 169°
2026-05-06 15:51 15.91313 120.94600 15952 ft 372 kts 169°
2026-05-06 15:51 15.88768 120.95060 15945 ft 379 kts 169°
2026-05-06 15:51 15.86181 120.95532 16036 ft 374 kts 169°
2026-05-06 15:52 15.83585 120.96006 15983 ft 379 kts 169°
2026-05-06 15:52 15.80987 120.96478 15906 ft 381 kts 169°
2026-05-06 15:52 15.78432 120.96942 15985 ft 364 kts 169°
2026-05-06 15:52 15.75973 120.97390 15980 ft 349 kts 169°
2026-05-06 15:53 15.73614 120.97819 15933 ft 337 kts 169°
2026-05-06 15:53 15.71346 120.98229 15936 ft 328 kts 169°
2026-05-06 15:53 15.69111 120.98640 15959 ft 326 kts 169°
2026-05-06 15:53 15.66868 120.99048 15937 ft 328 kts 169°
2026-05-06 15:54 15.64626 120.99450 15952 ft 327 kts 169°
2026-05-06 15:54 15.62378 120.99861 15954 ft 328 kts 169°
2026-05-06 15:54 15.60163 121.00270 15955 ft 325 kts 169°
2026-05-06 15:54 15.57920 121.00670 15506 ft 325 kts 169°
2026-05-06 15:55 15.55708 121.01068 15128 ft 325 kts 169°
2026-05-06 15:55 15.53497 121.01478 14836 ft 321 kts 169°
2026-05-06 15:55 15.51292 121.01878 14419 ft 322 kts 169°
2026-05-06 15:55 15.49097 121.02240 14127 ft 317 kts 173°
2026-05-06 15:56 15.46905 121.02016 13648 ft 320 kts 199°
2026-05-06 15:56 15.44913 121.01071 13370 ft 313 kts 204°
2026-05-06 15:56 15.42873 121.00227 12760 ft 318 kts 196°
2026-05-06 15:56 15.40772 120.99578 12450 ft 312 kts 196°
2026-05-06 15:57 15.38728 120.98784 11972 ft 315 kts 202°
2026-05-06 15:57 15.36747 120.97853 11617 ft 311 kts 201°
2026-05-06 15:57 15.34752 120.97070 11178 ft 310 kts 196°
2026-05-06 15:57 15.32700 120.96385 10795 ft 308 kts 197°
2026-05-06 15:58 15.30702 120.95591 10385 ft 308 kts 200°
2026-05-06 15:58 15.28730 120.94724 9994 ft 306 kts 199°
2026-05-06 15:58 15.26783 120.93982 9883 ft 292 kts 196°
2026-05-06 15:58 15.24804 120.93268 8996 ft 309 kts 198°
2026-05-06 15:59 15.22839 120.92472 8817 ft 298 kts 200°
2026-05-06 15:59 15.20913 120.91675 8314 ft 299 kts 199°
2026-05-06 15:59 15.18965 120.90941 7959 ft 294 kts 198°
2026-05-06 15:59 15.17076 120.90229 7510 ft 293 kts 198°
2026-05-06 16:00 15.15132 120.89615 7068 ft 291 kts 195°
2026-05-06 16:00 15.13207 120.89013 6706 ft 287 kts 196°
2026-05-06 16:00 15.11308 120.88392 6223 ft 287 kts 197°
2026-05-06 16:00 15.09421 120.87730 5833 ft 283 kts 199°
2026-05-06 16:01 15.07571 120.87034 5364 ft 282 kts 199°
2026-05-06 16:01 15.06347 120.86575 5061 ft 281 kts 199°
2026-05-06 16:01 15.04548 120.85906 5004 ft 269 kts 199°
2026-05-06 16:01 15.02136 120.85004 4997 ft 278 kts 200°
2026-05-06 16:02 15.00925 120.84534 5012 ft 275 kts 200°
2026-05-06 16:02 14.99106 120.83823 5001 ft 281 kts 200°
2026-05-06 16:02 14.97286 120.83113 4992 ft 278 kts 200°
2026-05-06 16:02 14.95488 120.82408 5003 ft 281 kts 200°
2026-05-06 16:03 14.93668 120.81692 5000 ft 279 kts 200°
2026-05-06 16:03 14.91841 120.80974 4997 ft 281 kts 200°
2026-05-06 16:03 14.90019 120.80257 4998 ft 278 kts 200°
2026-05-06 16:03 14.88195 120.79536 4988 ft 282 kts 200°
2026-05-06 16:04 14.86374 120.78815 4996 ft 279 kts 200°
2026-05-06 16:04 14.84557 120.78093 5002 ft 281 kts 200°
2026-05-06 16:04 14.82734 120.77364 4984 ft 281 kts 200°
2026-05-06 16:04 14.80904 120.76626 4980 ft 276 kts 200°
2026-05-06 16:05 14.79159 120.75928 4983 ft 264 kts 200°
2026-05-06 16:05 14.77452 120.75225 4982 ft 263 kts 201°
2026-05-06 16:05 14.75775 120.74511 4989 ft 259 kts 201°
2026-05-06 16:05 14.74107 120.73803 4989 ft 260 kts 201°
2026-05-06 16:06 14.72436 120.73090 4982 ft 259 kts 201°
2026-05-06 16:06 14.70792 120.72383 4982 ft 259 kts 201°
2026-05-06 16:06 14.69126 120.71667 4991 ft 259 kts 201°
2026-05-06 16:06 14.67447 120.70999 4978 ft 258 kts 194°
2026-05-06 16:07 14.65688 120.70702 4992 ft 256 kts 181°
2026-05-06 16:07 14.63906 120.70678 4993 ft 256 kts 177°
2026-05-06 16:07 14.62124 120.70724 4982 ft 256 kts 177°
2026-05-06 16:07 14.60342 120.70762 4991 ft 256 kts 177°
2026-05-06 16:08 14.58566 120.70844 4991 ft 253 kts 173°
2026-05-06 16:08 14.56818 120.71132 4990 ft 254 kts 165°
2026-05-06 16:08 14.55156 120.71634 4990 ft 251 kts 159°
2026-05-06 16:08 14.53542 120.72223 4984 ft 239 kts 158°
2026-05-06 16:09 14.52004 120.72812 4979 ft 234 kts 155°
2026-05-06 16:09 14.50539 120.73506 5015 ft 227 kts 152°
2026-05-06 16:09 14.49104 120.74228 4979 ft 228 kts 150°
2026-05-06 16:09 14.47826 120.75140 4981 ft 227 kts 137°
2026-05-06 16:10 14.46682 120.76253 4982 ft 225 kts 134°
2026-05-06 16:10 14.45541 120.77366 4982 ft 226 kts 133°
2026-05-06 16:10 14.44580 120.78645 4984 ft 225 kts 119°
2026-05-06 16:10 14.43920 120.80097 4963 ft 223 kts 104°
2026-05-06 16:11 14.43932 120.81686 4982 ft 223 kts 78°
2026-05-06 16:11 14.44249 120.83195 4706 ft 217 kts 83°
2026-05-06 16:11 14.44196 120.84745 4319 ft 214 kts 97°
2026-05-06 16:11 14.43956 120.86241 4066 ft 207 kts 99°
2026-05-06 16:12 14.43807 120.87703 3783 ft 203 kts 90°
2026-05-06 16:12 14.43981 120.89124 3579 ft 192 kts 73°
2026-05-06 16:12 14.44535 120.90294 3283 ft 174 kts 61°
2026-05-06 16:12 14.45081 120.91371 2804 ft 169 kts 66°
2026-05-06 16:13 14.45527 120.92472 2418 ft 159 kts 68°
2026-05-06 16:13 14.46000 120.93429 2133 ft 146 kts 59°
2026-05-06 16:13 14.46568 120.94263 1794 ft 138 kts 58°
2026-05-06 16:13 14.47052 120.95095 1465 ft 133 kts 62°
2026-05-06 16:14 14.47501 120.95928 1127 ft 131 kts 61°
2026-05-06 16:14 14.48026 120.96816 877 ft 155 kts 60°
2026-05-06 16:14 14.48537 120.97760 680 ft 154 kts 63°
2026-05-06 16:14 14.49071 120.98732 526 ft 151 kts 61°
2026-05-06 16:15 14.49584 120.99629 311 ft 149 kts 62°
2026-05-06 16:15 14.50086 121.00537 136 ft 142 kts 62°
2026-05-06 16:15 14.50538 121.01356 54 ft 99 kts 62°
2026-05-06 16:15 14.50739 121.01681 45 ft 34 kts 45°
2026-05-06 16:16 14.50811 121.01749 46 ft 0 kts 40°
2026-05-06 16:16 14.50823 121.01758 46 ft 0 kts 36°
2026-05-06 16:17 14.50825 121.01760 46 ft 3 kts 35°
2026-05-06 16:17 14.50852 121.01773 43 ft 1 kts 20°
2026-05-06 16:17 14.50898 121.01765 36 ft 10 kts 336°
2026-05-06 16:17 14.50971 121.01701 32 ft 17 kts 316°
2026-05-06 16:18 14.51082 121.01590 32 ft 25 kts 314°
2026-05-06 16:18 14.51202 121.01458 34 ft 21 kts 316°
2026-05-06 16:18 14.51245 121.01436 35 ft 0 kts 346°
2026-05-06 16:19 14.51245 121.01435 35 ft 1 kts 346°
2026-05-06 16:19 14.51300 121.01457 34 ft 12 kts 36°
2026-05-06 16:19 14.51368 121.01526 35 ft 18 kts 46°
2026-05-06 16:20 14.51453 121.01574 37 ft 13 kts 354°
2026-05-06 16:20 14.51524 121.01520 38 ft 14 kts 317°
2026-05-06 16:20 14.51594 121.01448 39 ft 15 kts 319°
2026-05-06 16:20 14.51677 121.01445 40 ft 10 kts 31°
2026-05-06 16:21 14.51702 121.01469 39 ft 0 kts 45°